• In Russia
  • List of Countries
  • For 7 days
  • Water Temperature
  • Satellite Maps
  • Weather Map
  • Weather Widgets
  • user-avatar
    Login

    Hourly Weather Angir

    Today, 20 January, Sunday

    Time Temperature Precipitation Wind Pressure Humidity
    00:00 -19°C° 0 mm 2 mps 710 mmHg 90%
    01:00 -19°C° 0 mm 2 mps 709 mmHg 88%
    02:00 -19°C° 0 mm 2 mps 709 mmHg 86%
    03:00 -19°C° 0 mm 2 mps 709 mmHg 84%
    04:00 -19°C° 0 mm 2 mps 708 mmHg 82%
    05:00 -17°C° 0 mm 1 mps 708 mmHg 80%
    06:00 -17°C° 0 mm 1 mps 708 mmHg 78%
    07:00 -17°C° 0 mm 1 mps 709 mmHg 76%
    08:00 -15°C° 0 mm 1 mps 709 mmHg 76%
    09:00 -16°C° 0 mm 2 mps 709 mmHg 75%
    10:00 -14°C° 0 mm 2 mps 709 mmHg 74%
    11:00 -13°C° 0 mm 2 mps 709 mmHg 74%
    12:00 -10°C° 0 mm 2 mps 709 mmHg 73%
    13:00 -9°C° 0 mm 2 mps 709 mmHg 73%
    14:00 -10°C° 0 mm 2 mps 708 mmHg 76%
    15:00 -12°C° 0 mm 2 mps 708 mmHg 80%
    16:00 -13°C° 0 mm 2 mps 708 mmHg 83%
    17:00 -14°C° 0 mm 2 mps 708 mmHg 81%
    18:00 -14°C° 0 mm 2 mps 708 mmHg 79%
    19:00 -13°C° 0 mm 1 mps 708 mmHg 78%
    20:00 -13°C° 0 mm 1 mps 708 mmHg 77%
    21:00 -14°C° 0 mm 1 mps 708 mmHg 76%
    22:00 -14°C° 0 mm 1 mps 707 mmHg 75%
    23:00 -14°C° 0 mm 1 mps 707 mmHg 75%

    Tomorrow, 21 January, Monday

    Time Temperature Precipitation Wind Pressure Humidity
    00:00 -15°C° 0 mm 1 mps 707 mmHg 76%
    01:00 -15°C° 0 mm 1 mps 706 mmHg 76%
    02:00 -15°C° 0 mm 1 mps 706 mmHg 76%
    03:00 -15°C° 0 mm 1 mps 706 mmHg 75%
    04:00 -18°C° 0 mm 2 mps 705 mmHg 75%
    05:00 -15°C° 0 mm 1 mps 705 mmHg 74%
    06:00 -15°C° 0 mm 1 mps 705 mmHg 73%
    07:00 -15°C° 0 mm 1 mps 706 mmHg 72%
    08:00 -13°C° 0 mm 1 mps 706 mmHg 71%
    09:00 -12°C° 0 mm 1 mps 706 mmHg 71%
    10:00 -12°C° 0 mm 2 mps 706 mmHg 70%
    11:00 -9°C° 0 mm 2 mps 706 mmHg 71%
    12:00 -8°C° 0 mm 2 mps 706 mmHg 72%
    13:00 -6°C° 0 mm 2 mps 706 mmHg 73%
    14:00 -7°C° 0 mm 2 mps 706 mmHg 77%
    15:00 -8°C° 0 mm 2 mps 706 mmHg 80%
    16:00 -9°C° 0 mm 2 mps 706 mmHg 83%
    17:00 -10°C° 0 mm 2 mps 706 mmHg 83%
    18:00 -10°C° 0 mm 2 mps 707 mmHg 83%
    19:00 -12°C° 0 mm 2 mps 707 mmHg 83%
    20:00 -12°C° 0 mm 2 mps 707 mmHg 83%
    21:00 -12°C° 0 mm 2 mps 707 mmHg 82%
    22:00 -12°C° 0 mm 2 mps 707 mmHg 82%
    23:00 -11°C° 0 mm 1 mps 707 mmHg 82%

    Day after tomorrow, 22 January, Tuesday

    Time Temperature Precipitation Wind Pressure Humidity
    00:00 -11°C° 0 mm 1 mps 707 mmHg 83%
    01:00 -11°C° 0 mm 1 mps 707 mmHg 83%
    02:00 -12°C° 0 mm 1 mps 707 mmHg 83%
    03:00 -12°C° 0 mm 1 mps 707 mmHg 82%
    04:00 -12°C° 0 mm 1 mps 707 mmHg 82%
    05:00 -13°C° 0 mm 1 mps 707 mmHg 82%
    06:00 -13°C° 0 mm 1 mps 707 mmHg 81%
    07:00 -13°C° 0 mm 1 mps 707 mmHg 81%
    08:00 -12°C° 0 mm 1 mps 707 mmHg 79%
    09:00 -11°C° 0 mm 1 mps 707 mmHg 78%
    10:00 -10°C° 0 mm 1 mps 707 mmHg 77%
    11:00 -9°C° 0 mm 1 mps 707 mmHg 75%
    12:00 -8°C° 0 mm 1 mps 707 mmHg 73%
    13:00 -7°C° 0 mm 1 mps 706 mmHg 72%
    14:00 -8°C° 0 mm 1 mps 706 mmHg 75%
    15:00 -9°C° 0 mm 1 mps 706 mmHg 79%
    16:00 -11°C° 0 mm 1 mps 706 mmHg 83%
    17:00 -11°C° 0 mm 1 mps 707 mmHg 81%
    18:00 -11°C° 0 mm 1 mps 707 mmHg 79%
    19:00 -12°C° 0 mm 1 mps 708 mmHg 77%
    20:00 -12°C° 0 mm 1 mps 708 mmHg 79%
    21:00 -11°C° 0 mm 1 mps 709 mmHg 80%
    22:00 -11°C° 0 mm 1 mps 709 mmHg 82%
    23:00 -10°C° 0 mm 1 mps 709 mmHg 84%

    23 January, Wednesday

    Time Temperature Precipitation Wind Pressure Humidity
    00:00 -10°C° 0 mm 1 mps 710 mmHg 87%
    01:00 -10°C° 0 mm 2 mps 710 mmHg 89%
    02:00 -10°C° 0 mm 2 mps 711 mmHg 89%
    03:00 -10°C° 0 mm 2 mps 711 mmHg 89%
    04:00 -9°C° 0 mm 2 mps 711 mmHg 88%
    05:00 -9°C° 0 mm 2 mps 711 mmHg 88%
    06:00 -9°C° 0 mm 2 mps 712 mmHg 88%
    07:00 -9°C° 0 mm 2 mps 712 mmHg 88%
    08:00 -9°C° 0 mm 3 mps 713 mmHg 86%
    09:00 -9°C° 0 mm 3 mps 713 mmHg 85%
    10:00 -9°C° 0 mm 4 mps 713 mmHg 83%
    11:00 -9°C° 0 mm 4 mps 713 mmHg 82%
    12:00 -10°C° 0 mm 5 mps 713 mmHg 80%
    13:00 -10°C° 0 mm 5 mps 713 mmHg 78%
    14:00 -10°C° 0 mm 4 mps 713 mmHg 80%
    15:00 -10°C° 0 mm 3 mps 713 mmHg 82%
    16:00 -12°C° 0 mm 3 mps 714 mmHg 84%
    17:00 -12°C° 0 mm 2 mps 714 mmHg 86%
    18:00 -13°C° 0 mm 2 mps 715 mmHg 88%
    19:00 -12°C° 0 mm 1 mps 715 mmHg 90%
    20:00 -12°C° 0 mm 1 mps 715 mmHg 91%
    21:00 -13°C° 0 mm 1 mps 716 mmHg 91%
    22:00 -14°C° 0 mm 1 mps 716 mmHg 92%
    23:00 -14°C° 0 mm 1 mps 716 mmHg 92%

    24 January, Thursday

    Time Temperature Precipitation Wind Pressure Humidity
    00:00 -14°C° 0 mm 1 mps 716 mmHg 91%
    01:00 -15°C° 0 mm 1 mps 716 mmHg 90%
    02:00 -15°C° 0 mm 1 mps 716 mmHg 88%
    03:00 -15°C° 0 mm 0 mps 716 mmHg 87%
    04:00 -15°C° 0 mm 0 mps 716 mmHg 85%
    05:00 -16°C° 0 mm 1 mps 716 mmHg 85%
    06:00 -16°C° 0 mm 1 mps 716 mmHg 86%
    07:00 -16°C° 0 mm 1 mps 716 mmHg 87%
    08:00 -15°C° 0 mm 1 mps 716 mmHg 86%
    09:00 -14°C° 0 mm 1 mps 717 mmHg 86%
    10:00 -13°C° 0 mm 1 mps 717 mmHg 86%
    11:00 -12°C° 0 mm 1 mps 716 mmHg 85%
    12:00 -13°C° 0 mm 2 mps 716 mmHg 85%
    13:00 -12°C° 0 mm 2 mps 715 mmHg 84%
    14:00 -13°C° 0 mm 2 mps 715 mmHg 87%
    15:00 -14°C° 0 mm 2 mps 715 mmHg 91%
    16:00 -13°C° 0 mm 1 mps 715 mmHg 94%
    17:00 -13°C° 0 mm 1 mps 715 mmHg 95%
    18:00 -14°C° 0 mm 1 mps 715 mmHg 96%
    19:00 -15°C° 0 mm 1 mps 715 mmHg 96%
    20:00 -15°C° 0 mm 1 mps 715 mmHg 97%
    21:00 -15°C° 0 mm 1 mps 715 mmHg 97%
    22:00 -18°C° 0 mm 2 mps 715 mmHg 97%
    23:00 -18°C° 0 mm 2 mps 715 mmHg 97%

    25 January, Friday

    Time Temperature Precipitation Wind Pressure Humidity
    00:00 -19°C° 0 mm 2 mps 714 mmHg 97%
    01:00 -19°C° 0 mm 2 mps 714 mmHg 97%
    02:00 -19°C° 0 mm 2 mps 714 mmHg 97%
    03:00 -20°C° 0 mm 2 mps 713 mmHg 97%
    04:00 -20°C° 0 mm 2 mps 713 mmHg 98%
    05:00 -19°C° 0 mm 1 mps 713 mmHg 98%
    06:00 -19°C° 0 mm 1 mps 713 mmHg 98%
    07:00 -19°C° 0 mm 1 mps 713 mmHg 97%
    08:00 -18°C° 0 mm 1 mps 713 mmHg 94%
    09:00 -16°C° 0 mm 1 mps 713 mmHg 90%
    10:00 -15°C° 0 mm 1 mps 713 mmHg 86%
    11:00 -13°C° 0 mm 1 mps 713 mmHg 83%
    12:00 -11°C° 0 mm 1 mps 712 mmHg 80%
    13:00 -10°C° 0 mm 1 mps 712 mmHg 77%
    14:00 -11°C° 0 mm 1 mps 712 mmHg 81%
    15:00 -12°C° 0 mm 1 mps 712 mmHg 85%
    16:00 -13°C° 0 mm 1 mps 711 mmHg 89%
    17:00 -13°C° 0 mm 1 mps 712 mmHg 89%
    18:00 -14°C° 0 mm 1 mps 712 mmHg 89%
    19:00 -15°C° 0 mm 1 mps 712 mmHg 89%
    20:00 -15°C° 0 mm 1 mps 712 mmHg 88%
    21:00 -15°C° 0 mm 1 mps 712 mmHg 86%
    22:00 -15°C° 0 mm 1 mps 712 mmHg 85%
    23:00 -15°C° 0 mm 1 mps 712 mmHg 85%
    Show more